TimeEET,TemperatureF,Dew PointF,Humidity,Sea Level PressureIn,VisibilityMPH,Wind Direction,Wind SpeedMPH,Gust SpeedMPH,PrecipitationIn,Events,Conditions,WindDirDegrees,DateUTC
12:20 AM,64.4,50.0,59,29.92,6.2,North,10.4,-,N/A,,Mostly Cloudy,10,2013-11-26 22:20:00
12:50 AM,64.4,50.0,59,29.89,6.2,NNE,10.4,-,N/A,,Mostly Cloudy,20,2013-11-26 22:50:00
1:20 AM,64.4,50.0,59,29.92,6.2,North,6.9,-,N/A,,Mostly Cloudy,10,2013-11-26 23:20:00
1:50 AM,64.4,50.0,59,29.89,6.2,North,8.1,-,N/A,,Mostly Cloudy,360,2013-11-26 23:50:00
2:20 AM,64.4,50.0,59,29.89,6.2,North,6.9,-,N/A,,Mostly Cloudy,360,2013-11-27 00:20:00
2:50 AM,64.4,48.2,56,29.89,6.2,North,8.1,-,N/A,,Mostly Cloudy,10,2013-11-27 00:50:00
3:20 AM,64.4,48.2,56,29.86,6.2,NNE,8.1,-,N/A,,Mostly Cloudy,20,2013-11-27 01:20:00
3:50 AM,64.4,48.2,56,29.86,6.2,North,8.1,-,N/A,,Mostly Cloudy,10,2013-11-27 01:50:00
4:20 AM,64.4,48.2,56,29.89,6.2,North,6.9,-,N/A,,Mostly Cloudy,360,2013-11-27 02:20:00
4:50 AM,64.4,50.0,59,29.86,6.2,North,6.9,-,N/A,,Mostly Cloudy,10,2013-11-27 02:50:00
5:20 AM,64.4,48.2,56,29.89,6.2,North,6.9,-,N/A,,Mostly Cloudy,10,2013-11-27 03:20:00
5:50 AM,64.4,50.0,59,29.89,6.2,NNE,6.9,-,N/A,,Mostly Cloudy,20,2013-11-27 03:50:00
6:20 AM,64.4,50.0,59,29.89,6.2,NNE,6.9,-,N/A,,Mostly Cloudy,30,2013-11-27 04:20:00
6:50 AM,62.6,50.0,63,29.89,6.2,North,4.6,-,N/A,,Mostly Cloudy,10,2013-11-27 04:50:00
7:20 AM,64.4,48.2,56,29.89,6.2,NNE,5.8,-,N/A,,Mostly Cloudy,20,2013-11-27 05:20:00
7:50 AM,64.4,50.0,59,29.92,6.2,Variable,2.3,-,N/A,,Mostly Cloudy,0,2013-11-27 05:50:00
8:20 AM,64.4,50.0,59,29.92,6.2,NNE,4.6,-,N/A,,Mostly Cloudy,30,2013-11-27 06:20:00
8:50 AM,64.4,51.8,64,29.92,6.2,NNE,4.6,-,N/A,,Mostly Cloudy,20,2013-11-27 06:50:00
9:20 AM,68.0,50.0,52,29.92,6.2,North,5.8,-,N/A,,Mostly Cloudy,360,2013-11-27 07:20:00
9:50 AM,69.8,50.0,49,29.95,6.2,NNE,6.9,-,N/A,,Mostly Cloudy,20,2013-11-27 07:50:00
10:20 AM,71.6,48.2,43,29.92,6.2,NE,10.4,-,N/A,,Mostly Cloudy,40,2013-11-27 08:20:00
10:50 AM,71.6,48.2,43,29.92,6.2,NE,10.4,-,N/A,,Mostly Cloudy,50,2013-11-27 08:50:00
11:20 AM,71.6,50.0,46,29.92,6.2,NE,6.9,-,N/A,,Mostly Cloudy,40,2013-11-27 09:20:00
11:50 AM,71.6,48.2,43,29.92,6.2,NNE,6.9,-,N/A,,Mostly Cloudy,30,2013-11-27 09:50:00
12:20 PM,71.6,48.2,43,29.92,6.2,NE,6.9,-,N/A,,Mostly Cloudy,40,2013-11-27 10:20:00
12:50 PM,71.6,50.0,46,29.92,6.2,NNE,5.8,-,N/A,,Mostly Cloudy,20,2013-11-27 10:50:00
1:20 PM,71.6,51.8,50,29.92,6.2,North,4.6,-,N/A,,Mostly Cloudy,350,2013-11-27 11:20:00
1:50 PM,71.6,51.8,50,29.95,6.2,North,4.6,-,N/A,,Mostly Cloudy,350,2013-11-27 11:50:00
2:20 PM,71.6,51.8,50,29.95,6.2,North,4.6,-,N/A,,Mostly Cloudy,360,2013-11-27 12:20:00
2:50 PM,71.6,51.8,50,29.95,6.2,NNE,5.8,-,N/A,,Mostly Cloudy,20,2013-11-27 12:50:00
3:20 PM,69.8,53.6,56,29.95,6.2,North,5.8,-,N/A,,Mostly Cloudy,10,2013-11-27 13:20:00
3:50 PM,68.0,51.8,56,29.95,6.2,NE,5.8,-,N/A,,Mostly Cloudy,50,2013-11-27 13:50:00
4:20 PM,68.0,51.8,56,29.95,4.3,North,4.6,-,N/A,,Mostly Cloudy,10,2013-11-27 14:20:00
4:50 PM,66.2,51.8,60,29.95,4.3,North,4.6,-,N/A,,Mostly Cloudy,10,2013-11-27 14:50:00
5:20 PM,66.2,51.8,60,29.98,3.7,NNE,2.3,-,N/A,,Mostly Cloudy,20,2013-11-27 15:20:00
5:50 PM,64.4,53.6,68,29.98,6.2,North,3.5,-,N/A,,Mostly Cloudy,360,2013-11-27 15:50:00
6:20 PM,66.2,51.8,60,29.98,6.2,NNW,4.6,-,N/A,,Mostly Cloudy,340,2013-11-27 16:20:00
6:50 PM,66.2,51.8,60,29.98,6.2,North,3.5,-,N/A,,Mostly Cloudy,10,2013-11-27 16:50:00
7:20 PM,66.2,51.8,60,30.01,6.2,North,4.6,-,N/A,,Mostly Cloudy,10,2013-11-27 17:20:00
7:50 PM,64.4,51.8,64,30.01,6.2,NE,4.6,-,N/A,,Mostly Cloudy,40,2013-11-27 17:50:00
8:20 PM,64.4,50.0,59,30.01,6.2,NE,3.5,-,N/A,,Mostly Cloudy,40,2013-11-27 18:20:00
8:50 PM,64.4,51.8,64,30.01,6.2,NE,4.6,-,N/A,,Mostly Cloudy,50,2013-11-27 18:50:00
9:20 PM,64.4,51.8,64,30.01,6.2,North,2.3,-,N/A,,Mostly Cloudy,350,2013-11-27 19:20:00
9:50 PM,64.4,51.8,64,30.01,6.2,NNE,3.5,-,N/A,,Mostly Cloudy,20,2013-11-27 19:50:00
10:20 PM,62.6,51.8,68,30.01,6.2,NE,4.6,-,N/A,,Mostly Cloudy,50,2013-11-27 20:20:00
10:50 PM,62.6,51.8,68,30.01,6.2,Variable,1.2,-,N/A,,Mostly Cloudy,0,2013-11-27 20:50:00
11:20 PM,62.6,51.8,68,30.01,6.2,Calm,Calm,-,N/A,,Mostly Cloudy,0,2013-11-27 21:20:00
11:50 PM,62.6,53.6,72,30.01,6.2,Calm,Calm,-,N/A,,Mostly Cloudy,0,2013-11-27 21:50:00